Regional Weather Roundup
Issued by NWS Charleston, SC

Current Version | Previous Version | Text Only | Print | Product List | Glossary Off
Versions: 1 2 3 4 5 6 7 8 9 10 11 12 13 14 15 16 17 18 19 20 21 22 23 24 25 26 27 28 29 30 31 32 33 34 35 36 37 38 39 40 41 42 43 44 45 46 47 48 49 50
000 ASUS42 KCHS 220627 RWRCHS Regional Weather Roundup National Weather Service Charleston SC 100 AM EST THU FEB 22 2018 NOTE: "fair" indicates few or no clouds below 12,000 feet with no significant weather and/or obstructions to visibility. Not all stations are quality controlled. Use data with caution, especially dewpoint observations. SCZ027-030-031-034>040-042>050-220700- ...Southeast South Carolina... CITY SKY/WX TMP DP RH WIND PRES REMARKS N Charleston FAIR 65 64 97 SE7 30.43S 6HR MIN TEMP: 65; 6HR MAX TEMP: 71; Waterfront Prk N/A 65 65 100 S7 30.29F Mount Pleasant FAIR 66 66 100 SE5 30.44S FOG Johns Island FAIR 66 66 100 S7 30.44S Pinopolis N/A 64 64 100 VRB2 30.34S Moncks Corner FAIR 63 61 94 CALM 30.43S FOG Summerville FAIR 63 63 100 CALM 30.44S Beaufort MCAS FAIR 69 68 96 SE6 30.42F 6HR MIN TEMP: 68; 6HR MAX TEMP: 71; Beaufort Arpt FAIR 66 64 94 S5 30.42S Hilton Head Is FAIR 68 66 94 VRB6 30.43F Walterboro FOG 63 63 100 CALM 30.44R VSB 1/2 Allendale CLOUDY 68 68 100 CALM 30.42R ...Southern Midlands and Pee Dee... CITY SKY/WX TMP DP RH WIND PRES REMARKS Georgetown FAIR 64 64 100 S3 30.45S Kingstree FOG 59 59 100 CALM 30.44S VSB 3/4 Orangeburg CLOUDY 66 65 96 S8 30.43S 6HR MIN TEMP: 65; 6HR MAX TEMP: 72; Barnwell N/A 70 68 94 S3 30.43R Aiken CLOUDY 66 66 100 S8 30.46R Manning FAIR 63 55 77 MISG 30.44S Columbia CLOUDY 70 67 90 S8 30.41S 6HR MIN TEMP: 69; 6HR MAX TEMP: 74; Sumter FOG 63 63 100 S3 30.41S VSB 5/8 6HR MIN TEMP: 62; 6HR MAX TEMP: 72; Florence FOG 62 62 100 SE5 30.44S VSB 1/4 6HR MIN TEMP: 63; 6HR MAX TEMP: 73; Myrtle Beach FAIR 66 64 93 S9 30.46R N Myrtle Beach FAIR 63 62 97 S5 30.45R 6HR MIN TEMP: 63; 6HR MAX TEMP: 67; $$ GAZ063-065-086>088-099>101-113>116-118-119-134>141-150-220700- ...Southeast Georgia... CITY SKY/WX TMP DP RH WIND PRES REMARKS Savannah Arpt FAIR 67 66 97 SE6 30.42F 6HR MIN TEMP: 66; 6HR MAX TEMP: 72; Hunter AAF FAIR 69 67 93 SE9 30.39F 6HR MIN TEMP: 67; 6HR MAX TEMP: 71; Fort Stewart FAIR 64 64 100 SE3 30.40S 6HR MIN TEMP: 65; 6HR MAX TEMP: 72; Statesboro CLOUDY 67 32 27 S5 30.42S Sylvania CLOUDY 67 67 100 S5 30.43R FOG Claxton CLOUDY 68 68 98 CALM 30.42R ...CSRA, Central and far Southeast Georgia... CITY SKY/WX TMP DP RH WIND PRES REMARKS Thomson FAIR 67 64 89 W5 30.46S Augusta-Bush CLOUDY 70 67 90 S8 30.40S 6HR MIN TEMP: 67; 6HR MAX TEMP: 76; Augusta-Daniel CLOUDY 70 66 87 S6 30.42R Swainsboro CLOUDY 68 68 100 S6 30.42S Vidalia CLOUDY 70 68 94 S6 30.41S Eastman CLOUDY 69 60 72 S5 30.43R Hazlehurst FAIR 69 68 98 S6 30.40S Alma CLOUDY 69 66 90 SE5 30.40S 6HR MIN TEMP: 69; 6HR MAX TEMP: 77; Waycross CLOUDY 69 66 90 S10G16 30.40S Jesup FOG 66 64 94 CALM 30.42S VSB 1 Baxley CLOUDY 66 66 100 S6 30.41R Brunswick FAIR 68 64 88 SE7 30.42F Saint Simons CLOUDY 67 65 93 SE8 30.42S 6HR MIN TEMP: 67; 6HR MAX TEMP: 70; $$ SCZ027-028-034-036>038-045-046-048>050-GAZ119-141-220700- ...Lake and Supplemental Coastal Observations... STATION/POSITION TIME TEMP WIND PRES WAVE SWELL AIR SEA DIR/SP/G HT/PER HT/PER/DIR (UTC) (F) (DEG/KT/KT) (MB) (FT/S) (FT/S/D) Winyah Bay 0545 67 180/ 6 1031.0S Lake Murray 0520 66 180/ 6/ 10 1029.1 ACE Basin NERRS 0545 67 140/ 3 1030.0S Fort Pulaski 0600 67 61 160/ 7/ 10 1030.4 Sapelo Island 0600 69 150/ 9 1030.0 $$ ANZ835-935-AMZ111-154-330-350-352-354-370-450-454-472-220700- ...C-MAN and Buoy Observations... STATION/POSITION TIME TEMP WIND PRES WAVE SWELL AIR SEA DIR/SP/G HT/PER HT/PER/DIR (UTC) (F) (DEG/KT/KT) (MB) (FT/S) (FT/S/D) Buoy 41004 0610 71 70 160/ 10/ 12 1030.8 Buoy 41008 0550 63 58 140/ 6/ 8 1029.9F 3/ 8 3/120/ 8 Folly Beach CMAN 0500 63 140/ 8/ 8 1031.3F Capers Nearshore NOT AVBL Fripp Nearshore 0608 60 59 150/ 8/ 10 1028.9F STATION/POSITION TIME TEMP WIND PRES WAVE SWELL AIR SEA DIR/SP/G HT/PER HT/PER/DIR (UTC) (F) (DEG/KT/KT) (MB) (FT/S) (FT/S/D) 5E St. Marys GA 0600 64 N/A 3/ 6 2/ 90/13 Frying Pan Buoy 0610 71 70 180/ 10/ 12 1031.4 Buoy 41025 0610 72 70 200/ 14/ 17 1032.3 Cape Lookout NC 0500 220/ 6/ 8 1032.3R Buoy 41002 0550 72 74 130/ 12/ 16 1032.5F 6/14 5/ 90/14 Buoy 41010 NOT AVBL St Augustine FL 0500 68 67 130/ 8/ 9 1029.9F $$

USA.gov is the U.S. government's official web portal to all federal, state and local government web resources and services.